Clearfield, PA

6:37 AM EDT on July 21, 2017 (GMT -0400)
Clearfield-Lawrence

Weather History for KFIG - November, 2012

Change the Weather History Date:

Thursday, November 1, 2012

  Actual Average (KDUJ) Record (KDUJ)
Temperature  
Mean Temperature 39 °F -  
Max Temperature 42 °F 55 °F 71 °F (1974)
Min Temperature 37 °F 40 °F 1 °F (2011)
Degree Days  
Heating Degree Days 26    
Moisture  
Dew Point 36 °F    
Average Humidity 90    
Maximum Humidity 96    
Minimum Humidity 83    
Precipitation  
Precipitation 0.03 in - - ()
Sea Level Pressure  
Sea Level Pressure 29.66 in    
Wind  
Wind Speed 10 mph (WSW)    
Max Wind Speed 17 mph    
Max Gust Speed 23 mph    
Visibility 10 miles    
Events Rain    
Averages and records for this station are not official NWS values.
T = Trace of Precipitation, MM = Missing Value Source: NWS Daily Summary

Daily Weather History Graph

Daily Weather History Graph

Search for Another Location

Airport or City:

Trip Planner

Search our weather history database for the weather conditions in past years. The results will help you decide how hot, cold, wet, or windy it might be!

Date:

Astronomy

Nov. 01, 2012 Rise Set
Actual Time 7:45 AM EDT 6:08 PM EDT
Civil Twilight 7:16 AM EDT 6:37 PM EDT
Nautical Twilight 6:43 AM EDT 7:09 PM EDT
Astronomical Twilight 6:11 AM EDT 7:41 PM EDT
Moon 8:03 PM EDT (11/1) 10:17 AM EDT (11/1)
Length of Visible Light 11h 20m
Length of Day
10h 23m
Waning Gibbous, 93% of the Moon is Illuminated
Nov 1
Waning Gibbous
Nov 6
Last Quarter
Nov 13
New
Nov 20
First Quarter
Nov 28
Full

Hourly Weather History & Observations

Time (EDT) Temp. Windchill Dew Point Humidity Pressure Visibility Wind Dir Wind Speed Gust Speed Precip Events Conditions
12:54 AM 37.9 °F 31.5 °F 35.1 °F 89% 29.60 in 10.0 mi WSW 9.2 mph 18.4 mph N/A   Overcast
1:54 AM 37.0 °F 31.0 °F 36.0 °F 96% 29.60 in 10.0 mi SW 8.1 mph - 0.00 in Rain Light Rain
2:54 AM 37.0 °F 29.8 °F 35.1 °F 93% 29.60 in 10.0 mi SW 10.4 mph - 0.01 in Rain Light Rain
3:54 AM 37.0 °F 31.6 °F 35.1 °F 93% 29.59 in 10.0 mi SW 6.9 mph - 0.00 in Rain Light Rain
4:54 AM 37.0 °F 32.4 °F 36.0 °F 96% 29.60 in 10.0 mi SSW 5.8 mph - 0.01 in Rain Light Rain
5:54 AM 37.0 °F 31.0 °F 36.0 °F 96% 29.60 in 10.0 mi SW 8.1 mph - 0.00 in Rain Light Rain
6:54 AM 37.0 °F 31.0 °F 36.0 °F 96% 29.60 in 10.0 mi WSW 8.1 mph - 0.00 in Rain Light Rain
8:54 AM 37.9 °F 30.9 °F 36.0 °F 93% 29.63 in 10.0 mi WSW 10.4 mph 17.3 mph 0.00 in Rain Light Rain
9:54 AM 37.9 °F 31.5 °F 36.0 °F 93% 29.65 in 10.0 mi SW 9.2 mph - 0.00 in   Overcast
11:54 AM 39.9 °F 32.1 °F 37.0 °F 89% 29.66 in 10.0 mi West 13.8 mph 23.0 mph 0.00 in   Overcast
12:54 PM 39.9 °F 32.1 °F 37.0 °F 89% 29.65 in 10.0 mi WSW 13.8 mph - 0.00 in Rain Light Rain
1:18 PM 39.2 °F 31.6 °F 37.4 °F 93% 29.62 in 10.0 mi WSW 12.7 mph 19.6 mph 0.00 in Rain Light Rain
1:41 PM 39.2 °F 31.6 °F 37.4 °F 93% 29.61 in 10.0 mi WSW 12.7 mph - 0.00 in   Overcast
2:54 PM 39.9 °F 31.1 °F 37.0 °F 89% 29.64 in 8.0 mi WSW 17.3 mph 21.9 mph 0.00 in Rain Light Rain
3:54 PM 41.0 °F 34.3 °F 37.0 °F 86% 29.64 in 10.0 mi WSW 11.5 mph 20.7 mph 0.00 in   Overcast
4:54 PM 39.9 °F 33.4 °F 37.0 °F 89% 29.65 in 10.0 mi WSW 10.4 mph - 0.01 in Rain Light Rain
5:54 PM 39.9 °F 33.9 °F 37.0 °F 89% 29.66 in 10.0 mi West 9.2 mph - 0.00 in   Overcast
6:54 PM 39.9 °F 33.9 °F 36.0 °F 86% 29.69 in 10.0 mi West 9.2 mph 18.4 mph N/A   Overcast
7:54 PM 39.9 °F 33.4 °F 36.0 °F 86% 29.70 in 10.0 mi West 10.4 mph 19.6 mph 0.00 in Rain Light Rain
8:54 PM 39.0 °F 34.0 °F 36.0 °F 89% 29.71 in 10.0 mi West 6.9 mph 16.1 mph 0.00 in   Overcast
9:17 PM 39.2 °F 34.2 °F 35.6 °F 87% 29.68 in 7.0 mi WSW 6.9 mph 16.1 mph N/A   Overcast
9:24 PM 37.4 °F 30.8 °F 35.6 °F 93% 29.68 in 7.0 mi WSW 9.2 mph - 0.00 in Rain Light Rain
9:40 PM 37.4 °F 29.3 °F 35.6 °F 93% 29.69 in 9.0 mi West 12.7 mph 21.9 mph 0.00 in Rain Light Rain
9:51 PM 37.4 °F 30.3 °F 35.6 °F 93% 29.69 in 10.0 mi West 10.4 mph 23.0 mph 0.00 in   Overcast
9:54 PM 37.9 °F 30.0 °F 35.1 °F 89% 29.72 in 10.0 mi West 12.7 mph - 0.00 in   Overcast
10:47 PM 37.4 °F 29.3 °F 35.6 °F 93% 29.69 in 10.0 mi WSW 12.7 mph 18.4 mph 0.00 in Rain Light Rain
10:54 PM 37.9 °F 30.0 °F 34.0 °F 86% 29.73 in 10.0 mi West 12.7 mph 18.4 mph 0.00 in   Overcast
11:16 PM 37.4 °F 30.3 °F 33.8 °F 87% 29.69 in 10.0 mi WSW 10.4 mph - N/A   Overcast
11:42 PM 37.4 °F 32.1 °F 33.8 °F 87% 29.69 in 10.0 mi Variable 6.9 mph - N/A   Overcast
11:54 PM 37.9 °F 31.5 °F 33.1 °F 83% 29.73 in 10.0 mi West 9.2 mph - N/A   Overcast